TimeEDT,TemperatureF,Dew PointF,Humidity,Sea Level PressureIn,VisibilityMPH,Wind Direction,Wind SpeedMPH,Gust SpeedMPH,PrecipitationIn,Events,Conditions,WindDirDegrees,DateUTC
12:15 AM,75.2,75.2,100,29.84,8.0,SSE,5.8,-,N/A,,Clear,160,2012-10-02 04:15:00
12:35 AM,75.2,75.2,100,29.84,6.0,SSE,6.9,-,N/A,,Clear,150,2012-10-02 04:35:00
12:55 AM,75.2,75.2,100,29.84,8.0,South,9.2,-,N/A,,Clear,170,2012-10-02 04:55:00
1:15 AM,75.2,75.2,100,29.85,8.0,South,9.2,-,N/A,,Clear,170,2012-10-02 05:15:00
1:35 AM,73.4,73.4,100,29.85,9.0,South,6.9,-,N/A,,Clear,170,2012-10-02 05:35:00
2:55 AM,73.4,73.4,100,29.84,9.0,South,8.1,-,N/A,,Mostly Cloudy,180,2012-10-02 06:55:00
3:15 AM,73.4,73.4,100,29.85,10.0,South,6.9,-,N/A,,Mostly Cloudy,190,2012-10-02 07:15:00
3:55 AM,73.4,73.4,100,29.84,8.0,SSE,9.2,-,N/A,,Mostly Cloudy,160,2012-10-02 07:55:00
4:15 AM,73.4,73.4,100,29.84,8.0,SSE,6.9,-,N/A,,Mostly Cloudy,160,2012-10-02 08:15:00
4:35 AM,73.4,73.4,100,29.85,8.0,South,6.9,-,N/A,,Overcast,180,2012-10-02 08:35:00
4:55 AM,73.4,73.4,100,29.85,8.0,SSE,5.8,-,N/A,,Scattered Clouds,160,2012-10-02 08:55:00
5:15 AM,73.4,73.4,100,29.85,10.0,South,8.1,-,N/A,,Clear,170,2012-10-02 09:15:00
5:55 AM,73.4,73.4,100,29.85,10.0,South,6.9,-,N/A,,Clear,170,2012-10-02 09:55:00
6:15 AM,73.4,73.4,100,29.86,8.0,SSE,6.9,-,N/A,,Partly Cloudy,160,2012-10-02 10:15:00
6:35 AM,73.4,73.4,100,29.86,10.0,South,6.9,-,N/A,,Mostly Cloudy,170,2012-10-02 10:35:00
6:55 AM,73.4,73.4,100,29.87,9.0,South,5.8,-,N/A,,Overcast,170,2012-10-02 10:55:00
7:15 AM,75.2,75.2,100,29.88,8.0,South,9.2,-,N/A,,Overcast,170,2012-10-02 11:15:00
7:30 AM,75.2,75.2,100,29.88,7.0,South,6.9,-,N/A,,Overcast,170,2012-10-02 11:30:00
7:52 AM,75.2,75.2,100,29.89,7.0,South,6.9,-,N/A,,Overcast,170,2012-10-02 11:52:00
8:27 AM,75.2,75.2,100,29.90,9.0,South,9.2,-,N/A,,Mostly Cloudy,170,2012-10-02 12:27:00
8:52 AM,77.0,75.2,94,29.92,10.0,South,9.2,-,N/A,,Mostly Cloudy,170,2012-10-02 12:52:00
9:50 AM,78.8,73.4,83,29.94,12.0,South,10.4,-,N/A,,Mostly Cloudy,170,2012-10-02 13:50:00
11:50 AM,78.8,73.4,83,29.96,10.0,South,9.2,-,N/A,,Overcast,170,2012-10-02 15:50:00
11:55 AM,78.8,73.4,83,29.95,12.0,South,11.5,-,N/A,,Overcast,170,2012-10-02 15:55:00
12:50 PM,80.6,73.4,79,29.95,12.0,South,8.1,-,N/A,,Mostly Cloudy,190,2012-10-02 16:50:00
1:50 PM,78.8,75.2,89,29.94,10.0,SSW,8.1,-,N/A,,Mostly Cloudy,210,2012-10-02 17:50:00
2:50 PM,82.4,71.6,70,29.93,12.0,WSW,6.9,-,N/A,,Mostly Cloudy,240,2012-10-02 18:50:00
3:35 PM,80.6,71.6,74,29.91,9.0,Calm,Calm,-,N/A,Rain-Thunderstorm,Light Rain,0,2012-10-02 19:35:00
3:55 PM,78.8,73.4,83,29.92,1.5,West,3.5,-,0.06,Rain-Thunderstorm,Heavy Rain,280,2012-10-02 19:55:00
4:15 PM,77.0,77.0,100,29.93,8.0,ESE,4.6,-,N/A,,Scattered Clouds,120,2012-10-02 20:15:00
4:35 PM,75.2,75.2,100,29.93,3.0,East,5.8,-,N/A,Rain,Light Rain,100,2012-10-02 20:35:00
4:55 PM,75.2,75.2,100,29.93,5.0,SSE,8.1,-,N/A,Rain,Light Rain,160,2012-10-02 20:55:00
5:15 PM,73.4,73.4,100,29.94,3.0,WSW,6.9,-,0.01,,Mostly Cloudy,250,2012-10-02 21:15:00
5:35 PM,73.4,73.4,100,29.93,9.0,Calm,Calm,-,0.01,,Mostly Cloudy,0,2012-10-02 21:35:00
5:55 PM,75.2,75.2,100,29.93,10.0,SE,5.8,-,0.01,,Clear,130,2012-10-02 21:55:00
6:15 PM,75.2,75.2,100,29.94,3.0,SE,3.5,-,N/A,Rain,Light Rain,130,2012-10-02 22:15:00
6:35 PM,75.2,75.2,100,29.95,9.0,SE,6.9,-,N/A,Rain,Light Rain,130,2012-10-02 22:35:00
6:55 PM,73.4,73.4,100,29.96,9.0,ESE,6.9,-,N/A,,Partly Cloudy,120,2012-10-02 22:55:00
7:15 PM,73.4,73.4,100,29.98,7.0,SE,10.4,-,N/A,Rain,Light Rain,130,2012-10-02 23:15:00
7:35 PM,73.4,73.4,100,29.99,7.0,SE,9.2,-,N/A,Rain,Light Rain,140,2012-10-02 23:35:00
7:55 PM,73.4,73.4,100,29.99,4.0,SE,9.2,-,N/A,Rain,Light Rain,140,2012-10-02 23:55:00
8:15 PM,73.4,73.4,100,29.99,4.0,SE,8.1,-,N/A,Rain,Light Rain,140,2012-10-03 00:15:00
8:35 PM,73.4,73.4,100,29.99,5.0,SE,10.4,16.1,0.01,Rain,Light Rain,130,2012-10-03 00:35:00
8:55 PM,73.4,73.4,100,30.00,6.0,SE,11.5,-,0.02,Rain,Light Rain,130,2012-10-03 00:55:00
9:15 PM,73.4,73.4,100,30.01,10.0,SE,11.5,-,N/A,,Mostly Cloudy,140,2012-10-03 01:15:00
9:35 PM,71.6,71.6,100,30.02,10.0,SE,10.4,-,N/A,,Partly Cloudy,130,2012-10-03 01:35:00
10:15 PM,71.6,71.6,100,30.04,10.0,SE,4.6,-,N/A,,Partly Cloudy,130,2012-10-03 02:15:00
10:35 PM,71.6,71.6,100,30.05,10.0,Calm,Calm,-,N/A,,Partly Cloudy,0,2012-10-03 02:35:00
10:55 PM,71.6,71.6,100,30.05,10.0,Calm,Calm,-,N/A,,Partly Cloudy,0,2012-10-03 02:55:00
11:15 PM,71.6,71.6,100,30.06,10.0,South,3.5,-,N/A,,Clear,180,2012-10-03 03:15:00
11:35 PM,71.6,-9999,N/A,30.06,9.0,Calm,Calm,-,N/A,,Clear,0,2012-10-03 03:35:00